When you browse on this site, cookies collect data to enhance your experience and personalize the content and advertising you see.
Visit our Privacy Policy to learn more. By continuing to use the site, you agree to this use of cookies and data.

Meteo pe oră la Alida

Astăzi, 6 August, Joi

Timp Temperatura Precipitaţii Vânt Presiune Umiditate
00:00 +18°C° 0 mm 1 m/s 710 mmHg 74%
01:00 +17°C° 0 mm 2 m/s 710 mmHg 78%
02:00 +16°C° 0 mm 2 m/s 709 mmHg 82%
03:00 +16°C° 0 mm 2 m/s 709 mmHg 84%
04:00 +16°C° 0 mm 1 m/s 710 mmHg 85%
05:00 +16°C° 0 mm 1 m/s 710 mmHg 87%
06:00 +19°C° 0 mm 1 m/s 710 mmHg 77%
07:00 +21°C° 0 mm 1 m/s 710 mmHg 68%
08:00 +24°C° 0 mm 1 m/s 710 mmHg 58%
09:00 +25°C° 0 mm 2 m/s 710 mmHg 52%
10:00 +27°C° 0 mm 2 m/s 710 mmHg 45%
11:00 +29°C° 0 mm 3 m/s 710 mmHg 38%
12:00 +30°C° 0 mm 3 m/s 710 mmHg 36%
13:00 +30°C° 0 mm 3 m/s 709 mmHg 34%
14:00 +31°C° 0 mm 3 m/s 709 mmHg 32%
15:00 +30°C° 0 mm 3 m/s 708 mmHg 35%
16:00 +30°C° 0 mm 3 m/s 708 mmHg 37%
17:00 +30°C° 0 mm 4 m/s 708 mmHg 39%
18:00 +27°C° 0 mm 4 m/s 708 mmHg 46%
19:00 +25°C° 0 mm 4 m/s 707 mmHg 53%
20:00 +22°C° 0 mm 4 m/s 707 mmHg 60%
21:00 +21°C° 0 mm 4 m/s 707 mmHg 62%
22:00 +20°C° 0 mm 4 m/s 706 mmHg 64%
23:00 +20°C° 0 mm 4 m/s 706 mmHg 65%

Mâine, 7 August, Vineri

Timp Temperatura Precipitaţii Vânt Presiune Umiditate
00:00 +19°C° 0 mm 4 m/s 706 mmHg 69%
01:00 +19°C° 0 mm 4 m/s 706 mmHg 73%
02:00 +19°C° 0 mm 4 m/s 705 mmHg 77%
03:00 +19°C° 0 mm 4 m/s 705 mmHg 77%
04:00 +19°C° 0 mm 4 m/s 705 mmHg 77%
05:00 +19°C° 0 mm 5 m/s 704 mmHg 77%
06:00 +20°C° 0 mm 5 m/s 705 mmHg 72%
07:00 +22°C° 0 mm 5 m/s 705 mmHg 67%
08:00 +25°C° 0 mm 5 m/s 705 mmHg 63%
09:00 +27°C° 0 mm 5 m/s 705 mmHg 58%
10:00 +29°C° 0 mm 5 m/s 705 mmHg 53%
11:00 +32°C° 0 mm 5 m/s 705 mmHg 49%
12:00 +33°C° 0 mm 4 m/s 705 mmHg 45%
13:00 +34°C° 0 mm 4 m/s 706 mmHg 40%
14:00 +35°C° 0 mm 4 m/s 706 mmHg 36%
15:00 +34°C° 0 mm 5 m/s 706 mmHg 37%
16:00 +34°C° 0 mm 5 m/s 706 mmHg 37%
17:00 +33°C° 0 mm 5 m/s 706 mmHg 38%
18:00 +30°C° 0 mm 5 m/s 706 mmHg 34%
19:00 +27°C° 0 mm 5 m/s 706 mmHg 30%
20:00 +25°C° 0 mm 5 m/s 707 mmHg 26%
21:00 +22°C° 0 mm 5 m/s 707 mmHg 34%
22:00 +20°C° 0 mm 5 m/s 707 mmHg 42%
23:00 +18°C° 0 mm 4 m/s 708 mmHg 51%

Poimâine, 8 August, Sâmbătă

Timp Temperatura Precipitaţii Vânt Presiune Umiditate
00:00 +17°C° 0 mm 4 m/s 708 mmHg 51%
01:00 +17°C° 0 mm 4 m/s 709 mmHg 50%
02:00 +15°C° 0 mm 4 m/s 709 mmHg 50%
03:00 +14°C° 0 mm 3 m/s 709 mmHg 53%
04:00 +14°C° 0 mm 3 m/s 709 mmHg 55%
05:00 +13°C° 0 mm 3 m/s 709 mmHg 58%
06:00 +17°C° 0 mm 3 m/s 710 mmHg 53%
07:00 +19°C° 0 mm 3 m/s 710 mmHg 48%
08:00 +21°C° 0 mm 4 m/s 711 mmHg 43%
09:00 +23°C° 0 mm 4 m/s 711 mmHg 39%
10:00 +26°C° 0 mm 4 m/s 711 mmHg 34%
11:00 +27°C° 0 mm 4 m/s 711 mmHg 30%
12:00 +29°C° 0 mm 4 m/s 710 mmHg 28%
13:00 +30°C° 0 mm 4 m/s 710 mmHg 26%
14:00 +32°C° 0 mm 4 m/s 710 mmHg 24%
15:00 +31°C° 0 mm 3 m/s 710 mmHg 25%
16:00 +31°C° 0 mm 3 m/s 709 mmHg 26%
17:00 +31°C° 0 mm 2 m/s 709 mmHg 27%
18:00 +28°C° 0 mm 2 m/s 709 mmHg 32%
19:00 +26°C° 0 mm 2 m/s 708 mmHg 37%
20:00 +23°C° 0 mm 2 m/s 708 mmHg 42%
21:00 +21°C° 0 mm 3 m/s 708 mmHg 45%
22:00 +21°C° 0 mm 3 m/s 708 mmHg 49%
23:00 +20°C° 0 mm 3 m/s 707 mmHg 52%

9 August, Duminică

Timp Temperatura Precipitaţii Vânt Presiune Umiditate
00:00 +19°C° 0.2 mm 3 m/s 707 mmHg 60%
01:00 +19°C° 0.2 mm 3 m/s 706 mmHg 67%
02:00 +18°C° 0.2 mm 3 m/s 705 mmHg 74%
03:00 +18°C° 0.8 mm 4 m/s 705 mmHg 80%
04:00 +17°C° 0.8 mm 4 m/s 705 mmHg 86%
05:00 +17°C° 0.8 mm 4 m/s 705 mmHg 92%
06:00 +17°C° 0.1 mm 5 m/s 706 mmHg 83%
07:00 +17°C° 0.1 mm 7 m/s 706 mmHg 74%
08:00 +18°C° 0.1 mm 8 m/s 707 mmHg 65%
09:00 +20°C° 0 mm 8 m/s 707 mmHg 59%
10:00 +21°C° 0 mm 8 m/s 707 mmHg 53%
11:00 +21°C° 0 mm 8 m/s 708 mmHg 47%
12:00 +22°C° 0 mm 9 m/s 708 mmHg 43%
13:00 +23°C° 0 mm 9 m/s 708 mmHg 38%
14:00 +23°C° 0 mm 10 m/s 708 mmHg 34%
15:00 +22°C° 0 mm 10 m/s 708 mmHg 37%
16:00 +21°C° 0 mm 11 m/s 708 mmHg 41%
17:00 +19°C° 0 mm 11 m/s 707 mmHg 44%
18:00 +18°C° 0 mm 9 m/s 708 mmHg 45%
19:00 +17°C° 0 mm 7 m/s 708 mmHg 47%
20:00 +17°C° 0 mm 4 m/s 708 mmHg 48%
21:00 +16°C° 0 mm 5 m/s 708 mmHg 50%
22:00 +15°C° 0 mm 5 m/s 708 mmHg 51%
23:00 +15°C° 0 mm 5 m/s 708 mmHg 53%

10 August, Luni

Timp Temperatura Precipitaţii Vânt Presiune Umiditate
00:00 +14°C° 0 mm 5 m/s 708 mmHg 54%
01:00 +14°C° 0 mm 5 m/s 708 mmHg 54%
02:00 +14°C° 0 mm 5 m/s 708 mmHg 55%
03:00 +14°C° 0 mm 5 m/s 708 mmHg 56%
04:00 +13°C° 0 mm 5 m/s 708 mmHg 58%
05:00 +13°C° 0 mm 5 m/s 708 mmHg 59%
06:00 +15°C° 0 mm 6 m/s 708 mmHg 54%
07:00 +17°C° 0 mm 7 m/s 708 mmHg 49%
08:00 +20°C° 0 mm 8 m/s 709 mmHg 43%
09:00 +21°C° 0 mm 9 m/s 709 mmHg 38%
10:00 +23°C° 0 mm 9 m/s 708 mmHg 33%
11:00 +26°C° 0 mm 10 m/s 708 mmHg 28%
12:00 +26°C° 0 mm 10 m/s 708 mmHg 28%
13:00 +27°C° 0 mm 10 m/s 708 mmHg 27%
14:00 +28°C° 0 mm 10 m/s 707 mmHg 27%
15:00 +27°C° 0 mm 9 m/s 707 mmHg 29%
16:00 +27°C° 0 mm 7 m/s 707 mmHg 31%
17:00 +27°C° 0 mm 6 m/s 706 mmHg 33%
18:00 +25°C° 0 mm 5 m/s 706 mmHg 38%
19:00 +22°C° 0 mm 3 m/s 706 mmHg 43%
20:00 +19°C° 0 mm 2 m/s 706 mmHg 49%
21:00 +19°C° 0 mm 2 m/s 706 mmHg 50%
22:00 +19°C° 0 mm 2 m/s 706 mmHg 51%
23:00 +18°C° 0 mm 2 m/s 706 mmHg 52%

11 August, Marţi

Timp Temperatura Precipitaţii Vânt Presiune Umiditate
00:00 +18°C° 0 mm 2 m/s 706 mmHg 53%
01:00 +17°C° 0 mm 2 m/s 706 mmHg 55%
02:00 +17°C° 0 mm 2 m/s 706 mmHg 56%
03:00 +16°C° 0 mm 2 m/s 706 mmHg 57%
04:00 +16°C° 0 mm 2 m/s 706 mmHg 59%
05:00 +16°C° 0 mm 2 m/s 706 mmHg 60%
06:00 +19°C° 0 mm 1 m/s 706 mmHg 54%
07:00 +21°C° 0 mm 1 m/s 706 mmHg 49%
08:00 +24°C° 0 mm 1 m/s 707 mmHg 43%
09:00 +26°C° 0 mm 1 m/s 707 mmHg 38%
10:00 +27°C° 0 mm 2 m/s 706 mmHg 34%
11:00 +29°C° 0 mm 2 m/s 706 mmHg 29%
12:00 +30°C° 0 mm 2 m/s 706 mmHg 27%
13:00 +31°C° 0 mm 3 m/s 706 mmHg 25%
14:00 +33°C° 0 mm 3 m/s 706 mmHg 22%
15:00 +33°C° 0 mm 3 m/s 706 mmHg 24%
16:00 +32°C° 0 mm 4 m/s 705 mmHg 26%
17:00 +32°C° 0 mm 4 m/s 705 mmHg 28%
18:00 +29°C° 0 mm 5 m/s 705 mmHg 33%
19:00 +26°C° 0 mm 5 m/s 705 mmHg 37%
20:00 +23°C° 0 mm 5 m/s 705 mmHg 42%
21:00 +22°C° 0 mm 4 m/s 705 mmHg 44%
22:00 +21°C° 0 mm 4 m/s 705 mmHg 46%
23:00 +20°C° 0 mm 3 m/s 705 mmHg 48%
Arată mai mult